Location: La Brionne
(46.1728°N, 1.7849°E)
Time: 17:35:37
(UTC+00:00)

METEOR M2 - Visible Passes

Search period start: 28 March 2023 00:00
Search period end: 07 April 2023 00:00
Orbit: 819 x 826 km, 98.4° (Epoch: 26 March)

Date Brightness Start Highest point End Pass type
(mag) Time Alt. Az. Time Alt. Az. Time Alt. Az.
28 Mar ? 18:46:14 10° SW 18:49:48 18° W 18:53:23 10° NW visible
30 Mar ? 05:00:12 10° NE 05:03:28 16° E 05:06:42 10° SE visible
31 Mar ? 04:42:20 10° ENE 04:43:10 10° E 04:44:00 10° E visible
01 Apr ? 19:08:37 10° WSW 19:10:20 11° W 19:12:03 10° WNW visible
02 Apr ? 18:46:32 10° SW 18:50:02 17° W 18:53:35 10° NW visible
05 Apr ? 04:42:21 10° ENE 04:43:25 11° E 04:44:29 10° E visible
06 Apr ? 19:09:01 10° WSW 19:10:35 11° W 19:12:09 10° WNW visible
